Regional Weather Roundup
Issued by NWS Raleigh/Durham, NC

Home | Current Version | Previous Version | Text Only | Print | Product List | Glossary On
Versions: 1 2 3 4 5 6 7 8 9 10 11 12 13 14 15 16 17 18 19 20 21 22 23 24 25 26 27 28 29 30 31 32 33 34 35 36 37 38 39 40 41 42 43 44 45 46 47 48 49 50
000
ASUS42 KRAH 142310
RWRRAH
NORTH CAROLINA WEATHER ROUNDUP
NATIONAL WEATHER SERVICE RALEIGH NC
600 PM EST SUN FEB 14 2016

NOTE: "FAIR" INDICATES FEW OR NO CLOUDS BELOW 12,000 FEET WITH NO
SIGNIFICANT WEATHER AND/OR OBSTRUCTIONS TO VISIBILITY.

NCZ001-053-055-056-065-067-150000-
WESTERN NORTH CAROLINA

CITY           SKY/WX    TMP DP  RH WIND       PRES   REMARKS
ASHEVILLE      CLOUDY    22   3  44 SE6       30.26S WCI  14
JEFFERSON      LGT SNOW  13   9  82 S3        30.17F VSB 3/4
MORGANTON      FLURRIES  23  11  60 CALM      30.40F
HICKORY        CLOUDY    24   3  40 CALM      30.35F
RUTHERFORDTON  CLOUDY    25   3  39 E3        30.38S
MOUNT AIRY     LGT SNOW  22  15  74 SE3       30.39S
BOONE          SNOW      14  10  86 SE3       30.18F VSB 1/4
$$

NCZ021-022-025-041-071-084-088-150000-
CENTRAL NORTH CAROLINA

CITY           SKY/WX    TMP DP  RH WIND       PRES   REMARKS
CHARLOTTE      CLOUDY    28  -2  27 E6        30.40S WCI  22
GREENSBORO     CLOUDY    25   5  42 SE3       30.38F
WINSTON-SALEM  CLOUDY    24   7  48 E3        30.40S
RALEIGH-DURHAM CLOUDY    29  -2  26 SE6       30.45S WCI  23
FORT BRAGG     PTCLDY    29   3  32 E8        30.44S WCI  21
FAYETTEVILLE   PTCLDY    30   4  33 E7        30.44F WCI  23
BURLINGTON     CLOUDY    27   2  34 E5        30.42S WCI  22
LAURINBURG     CLOUDY    30   4  33 E6        30.44S WCI  24
$$

NCZ011-015-027-028-043-044-047-080-103-150000-
NORTHEASTERN NORTH CAROLINA

CITY           SKY/WX    TMP DP  RH WIND       PRES   REMARKS
ROCKY MT-WILSO CLOUDY    28   2  32 E3        30.49S
GREENVILLE     CLOUDY    30   1  29 E3        30.50S
WASHINGTON     CLOUDY    26   6  41 E9        30.52R WCI  17
ELIZABETH CITY PTCLDY    23  10  57 NE10      30.54R WCI  12
MANTEO         CLOUDY    24  14  67 NE6       30.54S WCI  17
CAPE HATTERAS  CLOUDY    26  15  63 NE6       30.53S WCI  19
$$

NCZ078-087-090-091-093-098-101-150000-
SOUTHEASTERN NORTH CAROLINA

CITY           SKY/WX    TMP DP  RH WIND       PRES   REMARKS
LUMBERTON      CLOUDY    33   7  33 E6        30.44S WCI  28
GOLDSBORO      MOCLDY    28   3  34 E7        30.48S WCI  21
KINSTON        PTCLDY    30   3  31 E5        30.51R WCI  25
KENANSVILLE    CLOUDY    30   3  31 CALM      30.49S
NEW BERN       CLOUDY    29   5  36 E6        30.52S WCI  23
CHERRY POINT   CLOUDY    28   9  44 E8        30.53R WCI  20
BEAUFORT       CLOUDY    27  10  49 N9        30.52S WCI  18
JACKSONVILLE   CLOUDY    32   3  29 E8        30.50R WCI  25
WILMINGTON     PTCLDY    32  11  41 E10       30.48S WCI  24
$$




USA.gov is the U.S. government's official web portal to all federal, state and local government web resources and services.